Americus, GA

10:07 PM EST on February 13, 2016 (GMT -0500)
Souther

Weather History for KACJ - November, 2013

Change the Weather History Date:

Wednesday, November 13, 2013

  Actual Average (KABY) Record (KABY)
Temperature  
Mean Temperature 41 °F 59 °F  
Max Temperature 50 °F 72 °F 86 °F (1986)
Min Temperature 32 °F 46 °F 23 °F (1968)
Degree Days  
Heating Degree Days 24 6  
Month to date heating degree days 68  
Since 1 July heating degree days 118  
Cooling Degree Days 0 1  
Month to date cooling degree days 19  
Year to date cooling degree days 2522  
Moisture  
Dew Point 19 °F    
Average Humidity 48    
Maximum Humidity 70    
Minimum Humidity 24    
Precipitation  
Precipitation 0.00 in 0.08 in 0.04 in (2008)
Month to date precipitation 1.11  
Year to date precipitation 42.74  
Sea Level Pressure  
Sea Level Pressure 30.48 in    
Wind  
Wind Speed 11 mph (NE)    
Max Wind Speed 16 mph    
Max Gust Speed 25 mph    
Visibility 10 miles    
Events      
T = Trace of Precipitation, MM = Missing Value Source: NWS Daily Summary

Daily Weather History Graph

Daily Weather History Graph

Search for Another Location

Airport or City:

Trip Planner

Search our weather history database for the weather conditions in past years. The results will help you decide how hot, cold, wet, or windy it might be!

Date:

Astronomy

Nov. 13, 2013 Rise Set
Actual Time 7:04 AM EST 5:37 PM EST
Civil Twilight 6:38 AM EST 6:03 PM EST
Nautical Twilight 6:08 AM EST 6:33 PM EST
Astronomical Twilight 5:39 AM EST 7:02 PM EST
Moon 3:13 PM EST (11/13) 3:09 AM EST (11/13)
Length of Visible Light 11h 25m
Length of Day
10h 33m
Waxing Gibbous, 84% of the Moon is Illuminated
Nov 13
Waxing Gibbous
Nov 17
Full
Nov 25
Last Quarter
Dec 2
New
Dec 9
First Quarter

Hourly Weather History & Observations

Time (EST) Temp. Windchill Dew Point Humidity Pressure Visibility Wind Dir Wind Speed Gust Speed Precip Events Conditions
12:15 AM 35.6 °F 27.5 °F 21.2 °F 56% 30.40 in 10.0 mi North 11.5 mph 17.3 mph N/A   Clear
12:35 AM 35.6 °F 28.0 °F 21.2 °F 56% 30.40 in 10.0 mi North 10.4 mph 17.3 mph N/A   Clear
12:55 AM 35.6 °F 27.1 °F 21.2 °F 56% 30.40 in 10.0 mi North 12.7 mph 16.1 mph N/A   Clear
1:15 AM 35.6 °F 28.0 °F 19.4 °F 52% 30.41 in 10.0 mi North 10.4 mph - N/A   Clear
1:35 AM 35.6 °F 27.5 °F 19.4 °F 52% 30.41 in 10.0 mi North 11.5 mph 18.4 mph N/A   Clear
1:55 AM 35.6 °F 27.1 °F 19.4 °F 52% 30.41 in 10.0 mi NNE 12.7 mph 19.6 mph N/A   Clear
2:15 AM 35.6 °F 28.6 °F 19.4 °F 52% 30.42 in 10.0 mi NNE 9.2 mph - N/A   Clear
2:35 AM 33.8 °F 25.3 °F 19.4 °F 56% 30.42 in 10.0 mi NNE 11.5 mph 16.1 mph N/A   Clear
2:55 AM 33.8 °F 24.3 °F 21.2 °F 60% 30.41 in 10.0 mi NNE 13.8 mph 18.4 mph N/A   Clear
3:15 AM 33.8 °F 24.8 °F 21.2 °F 60% 30.41 in 10.0 mi NNE 12.7 mph - N/A   Clear
3:35 AM 33.8 °F 24.3 °F 21.2 °F 60% 30.42 in 10.0 mi NNE 13.8 mph 18.4 mph N/A   Clear
3:55 AM 33.8 °F 25.3 °F 21.2 °F 60% 30.43 in 10.0 mi NNE 11.5 mph - N/A   Clear
4:15 AM 33.8 °F 25.3 °F 21.2 °F 60% 30.43 in 10.0 mi NNE 11.5 mph - N/A   Clear
4:35 AM 32.0 °F 23.6 °F 21.2 °F 64% 30.45 in 10.0 mi NNE 10.4 mph - N/A   Clear
4:55 AM 32.0 °F 23.6 °F 21.2 °F 64% 30.45 in 10.0 mi NNE 10.4 mph - N/A   Clear
5:15 AM 32.0 °F 22.1 °F 21.2 °F 64% 30.46 in 10.0 mi NE 13.8 mph - N/A   Clear
5:35 AM 32.0 °F 23.6 °F 19.4 °F 60% 30.47 in 10.0 mi NE 10.4 mph 17.3 mph N/A   Clear
5:55 AM 32.0 °F 22.5 °F 19.4 °F 60% 30.48 in 10.0 mi NE 12.7 mph - N/A   Clear
6:15 AM 32.0 °F 24.2 °F 17.6 °F 55% 30.49 in 10.0 mi NE 9.2 mph 17.3 mph N/A   Clear
6:35 AM 32.0 °F 23.0 °F 17.6 °F 55% 30.49 in 10.0 mi ENE 11.5 mph 18.4 mph N/A   Clear
6:55 AM 32.0 °F 23.0 °F 17.6 °F 55% 30.50 in 10.0 mi ENE 11.5 mph 17.3 mph N/A   Clear
7:15 AM 32.0 °F 24.2 °F 17.6 °F 55% 30.51 in 10.0 mi NE 9.2 mph - N/A   Clear
7:35 AM 32.0 °F 23.0 °F 17.6 °F 55% 30.53 in 10.0 mi NE 11.5 mph 17.3 mph N/A   Clear
7:55 AM 32.0 °F 23.6 °F 19.4 °F 60% 30.53 in 10.0 mi NE 10.4 mph - N/A   Clear
8:15 AM 33.8 °F 24.8 °F 19.4 °F 56% 30.54 in 10.0 mi NE 12.7 mph 17.3 mph N/A   Clear
8:35 AM 33.8 °F 24.3 °F 19.4 °F 56% 30.54 in 10.0 mi NE 13.8 mph 19.6 mph N/A   Clear
8:55 AM 35.6 °F 26.6 °F 17.6 °F 48% 30.55 in 10.0 mi ENE 13.8 mph 25.3 mph N/A   Clear
9:15 AM 37.4 °F 28.2 °F 17.6 °F 45% 30.55 in 10.0 mi ENE 16.1 mph 24.2 mph N/A   Clear
9:35 AM 37.4 °F 28.9 °F 17.6 °F 45% 30.55 in 10.0 mi ENE 13.8 mph 20.7 mph N/A   Clear
9:55 AM 37.4 °F 28.9 °F 17.6 °F 45% 30.55 in 10.0 mi ENE 13.8 mph 24.2 mph N/A   Clear
10:15 AM 39.2 °F 30.8 °F 15.8 °F 39% 30.55 in 10.0 mi ENE 15.0 mph 21.9 mph N/A   Clear
10:35 AM 41.0 °F 33.5 °F 15.8 °F 36% 30.55 in 10.0 mi ENE 13.8 mph 23.0 mph N/A   Clear
10:55 AM 42.8 °F 35.4 °F 15.8 °F 34% 30.55 in 10.0 mi NE 15.0 mph 21.9 mph N/A   Clear
11:15 AM 42.8 °F 35.4 °F 15.8 °F 34% 30.55 in 10.0 mi East 15.0 mph 19.6 mph N/A   Clear
11:35 AM 42.8 °F 36.6 °F 15.8 °F 34% 30.54 in 10.0 mi ENE 11.5 mph 18.4 mph N/A   Clear
11:55 AM 44.6 °F 38.1 °F 15.8 °F 31% 30.53 in 10.0 mi ENE 13.8 mph - N/A   Clear
12:15 PM 44.6 °F 39.7 °F 15.8 °F 31% 30.52 in 10.0 mi NE 9.2 mph 19.6 mph N/A   Clear
12:35 PM 46.4 °F 39.8 °F 14.0 °F 27% 30.51 in 10.0 mi NE 16.1 mph 19.6 mph N/A   Clear
12:55 PM 46.4 °F 40.4 °F 14.0 °F 27% 30.51 in 10.0 mi NE 13.8 mph 17.3 mph N/A   Clear
1:15 PM 48.2 °F - 14.0 °F 25% 30.50 in 10.0 mi NE 16.1 mph 19.6 mph N/A   Clear
1:35 PM 48.2 °F - 14.0 °F 25% 30.49 in 10.0 mi ENE 9.2 mph 17.3 mph N/A   Clear
1:55 PM 50.0 °F - 14.0 °F 24% 30.48 in 10.0 mi NE 15.0 mph 20.7 mph N/A   Clear
2:15 PM 50.0 °F - 14.0 °F 24% 30.48 in 10.0 mi ENE 11.5 mph 21.9 mph N/A   Clear
2:35 PM 50.0 °F - 15.8 °F 26% 30.48 in 10.0 mi ENE 10.4 mph 17.3 mph N/A   Clear
2:55 PM 50.0 °F - 15.8 °F 26% 30.47 in 10.0 mi NE 9.2 mph 12.7 mph N/A   Clear
3:15 PM 50.0 °F - 15.8 °F 26% 30.47 in 10.0 mi NE 11.5 mph - N/A   Clear
3:35 PM 50.0 °F - 15.8 °F 26% 30.47 in 10.0 mi ENE 9.2 mph - N/A   Clear
3:55 PM 50.0 °F - 15.8 °F 26% 30.46 in 10.0 mi ENE 12.7 mph 18.4 mph N/A   Clear
4:15 PM 50.0 °F - 14.0 °F 24% 30.47 in 10.0 mi ENE 13.8 mph 18.4 mph N/A   Clear
4:35 PM 50.0 °F - 15.8 °F 26% 30.47 in 10.0 mi ENE 8.1 mph - N/A   Clear
4:55 PM 48.2 °F - 17.6 °F 30% 30.47 in 10.0 mi ENE 9.2 mph - N/A   Clear
5:15 PM 46.4 °F 43.5 °F 17.6 °F 32% 30.47 in 10.0 mi NE 5.8 mph - N/A   Clear
5:35 PM 44.6 °F 42.2 °F 19.4 °F 37% 30.47 in 10.0 mi ENE 4.6 mph - N/A   Clear
5:55 PM 42.8 °F 40.1 °F 19.4 °F 39% 30.48 in 10.0 mi ENE 4.6 mph - N/A   Clear
6:15 PM 39.2 °F 37.0 °F 19.4 °F 45% 30.48 in 10.0 mi ENE 3.5 mph - N/A   Clear
6:35 PM 39.2 °F 37.0 °F 21.2 °F 49% 30.48 in 10.0 mi ENE 3.5 mph - N/A   Clear
6:55 PM 37.4 °F 34.9 °F 21.2 °F 52% 30.48 in 10.0 mi ENE 3.5 mph - N/A   Clear
7:15 PM 37.4 °F 34.9 °F 21.2 °F 52% 30.49 in 10.0 mi ENE 3.5 mph - N/A   Clear
7:35 PM 35.6 °F 32.8 °F 21.2 °F 56% 30.49 in 10.0 mi ENE 3.5 mph - N/A   Clear
7:55 PM 35.6 °F 32.8 °F 23.0 °F 60% 30.49 in 10.0 mi ENE 3.5 mph - N/A   Clear
8:15 PM 35.6 °F - 23.0 °F 60% 30.49 in 10.0 mi Calm Calm - N/A   Clear
8:35 PM 33.8 °F - 23.0 °F 65% 30.49 in 10.0 mi Calm Calm - N/A   Clear
8:55 PM 33.8 °F - 24.8 °F 70% 30.50 in 10.0 mi Calm Calm - N/A   Clear
9:15 PM 33.8 °F 30.8 °F 23.0 °F 65% 30.50 in 10.0 mi East 3.5 mph - N/A   Clear
9:35 PM 35.6 °F 30.7 °F 23.0 °F 60% 30.50 in 10.0 mi ENE 5.8 mph - N/A   Clear
9:55 PM 35.6 °F 31.7 °F 21.2 °F 56% 30.50 in 10.0 mi ENE 4.6 mph - N/A   Clear
10:15 PM 35.6 °F 30.7 °F 21.2 °F 56% 30.50 in 10.0 mi ENE 5.8 mph - N/A   Clear
10:35 PM 33.8 °F 29.6 °F 21.2 °F 60% 30.50 in 10.0 mi ENE 4.6 mph - N/A   Clear
10:55 PM 33.8 °F 28.6 °F 21.2 °F 60% 30.49 in 10.0 mi ENE 5.8 mph - N/A   Clear
11:15 PM 32.0 °F 27.5 °F 23.0 °F 69% 30.49 in 10.0 mi ENE 4.6 mph - N/A   Clear
11:35 PM 32.0 °F 27.5 °F 23.0 °F 69% 30.49 in 10.0 mi ENE 4.6 mph - N/A   Clear
11:55 PM 32.0 °F 28.7 °F 23.0 °F 69% 30.48 in 10.0 mi ENE 3.5 mph - N/A   Clear